Change the Weather History Date:

Monday, November 12, 2012

  Actual Average Record
Temperature  
Mean Temperature 47 °F -  
Max Temperature 50 °F - - ()
Min Temperature 44 °F - - ()
Degree Days  
Heating Degree Days 18    
Moisture  
Dew Point 44 °F    
Average Humidity 92    
Maximum Humidity 100    
Minimum Humidity 82    
Precipitation  
Precipitation 0.00 in - - ()
Sea Level Pressure  
Sea Level Pressure 30.23 in    
Wind  
Wind Speed 2 mph ()    
Max Wind Speed 6 mph    
Max Gust Speed -    
Visibility 3.7 miles    
Events Rain    
T = Trace of Precipitation, MM = Missing Value Source: Averaged Metar Reports

Daily Weather History Graph

Daily Weather History Graph

Search for Another Location

Airport or City:

Trip Planner

Search our weather history database for the weather conditions in past years. The results will help you decide how hot, cold, wet, or windy it might be!

Date:

Astronomy

Nov. 12, 2012 Rise Set
Actual Time 7:05 AM CET 4:16 PM CET
Civil Twilight 6:30 AM CET 4:51 PM CET
Nautical Twilight 5:51 AM CET 5:30 PM CET
Astronomical Twilight 5:13 AM CET 6:08 PM CET
Moon 5:02 AM CET (11/12) 3:13 PM CET (11/12)
Length of Visible Light 10h 21m
Length of Day
9h 11m
Waning Crescent, 3% of the Moon is Illuminated
Nov 12
Waning Crescent
Nov 13
New
Nov 20
First Quarter
Nov 28
Full
Dec 6
Last Quarter

Hourly Weather History & Observations

Time (CET) Temp. Windchill Dew Point Humidity Pressure Visibility Wind Dir Wind Speed Gust Speed Precip Events Conditions
12:00 AM 44.6 °F - 42.8 °F 93% 30.06 in 6.2 mi Variable 2.3 mph - N/A Rain Light Rain
1:00 AM 44.6 °F 41.4 °F 42.8 °F 93% 30.06 in 6.2 mi West 5.8 mph - N/A   Overcast
2:00 AM 44.6 °F 42.2 °F 42.8 °F 93% 30.12 in 6.2 mi West 4.6 mph - N/A   Overcast
3:00 AM 44.6 °F - 42.8 °F 93% 30.12 in 6.2 mi Calm Calm - N/A   Overcast
4:00 AM 44.6 °F 43.1 °F 42.8 °F 93% 30.15 in 6.2 mi West 3.5 mph - N/A   Overcast
5:00 AM 44.6 °F - 42.8 °F 93% 30.15 in 6.2 mi Variable 1.2 mph - N/A   Overcast
6:00 AM 44.6 °F 43.1 °F 42.8 °F 93% 30.15 in 5.0 mi WNW 3.5 mph - N/A   Overcast
6:52 AM 44.6 °F - 42.8 °F 93% 30.18 in 2.5 mi SW 2.3 mph - N/A   Overcast
7:30 AM 44.6 °F - 44.6 °F 100% 30.21 in 1.9 mi Calm Calm - N/A   Light Drizzle
8:00 AM 44.6 °F - 44.6 °F 100% 30.21 in 1.9 mi SSW 1.2 mph - N/A   Light Drizzle
9:00 AM 46.4 °F - 44.6 °F 93% 30.21 in 1.9 mi Calm Calm - N/A   Overcast
10:00 AM 46.4 °F 43.5 °F 44.6 °F 93% 30.24 in 2.5 mi WNW 5.8 mph - N/A   Overcast
11:00 AM 48.2 °F - 44.6 °F 87% 30.24 in 2.5 mi NW 3.5 mph - N/A   Overcast
12:00 PM 48.2 °F - 44.6 °F 87% 30.24 in 2.5 mi Variable 2.3 mph - N/A   Overcast
12:28 PM 50.0 °F - 44.6 °F 82% 30.24 in 3.7 mi West 3.5 mph - N/A   Mostly Cloudy
1:00 PM 50.0 °F - 44.6 °F 82% 30.24 in 3.7 mi NNW 4.6 mph - N/A   Mostly Cloudy
2:00 PM 50.0 °F - 44.6 °F 82% 30.24 in 3.7 mi Variable 2.3 mph - N/A   Mostly Cloudy
3:00 PM 50.0 °F - 44.6 °F 82% 30.27 in 3.7 mi Calm Calm - N/A   Mostly Cloudy
4:00 PM 48.2 °F - 44.6 °F 87% 30.27 in 3.7 mi Calm Calm - N/A   Mostly Cloudy
5:00 PM 46.4 °F - 44.6 °F 93% 30.30 in 3.7 mi Calm Calm - N/A   Unknown
6:00 PM 46.4 °F - 44.6 °F 93% 30.30 in 3.7 mi East 1.2 mph - N/A   Unknown
7:00 PM 46.4 °F - 44.6 °F 93% 30.30 in 3.7 mi Calm Calm - N/A   Mostly Cloudy
8:00 PM 46.4 °F - 44.6 °F 93% 30.33 in 3.7 mi Calm Calm - N/A   Overcast
9:00 PM 46.4 °F - 44.6 °F 93% 30.33 in 3.1 mi Calm Calm - N/A   Overcast
10:00 PM 44.6 °F - 44.6 °F 100% 30.36 in 2.5 mi Calm Calm - N/A   Light Drizzle
10:17 PM 44.6 °F - 44.6 °F 100% 30.36 in 1.2 mi ESE 2.3 mph - N/A   Overcast
11:00 PM 44.6 °F - 44.6 °F 100% 30.36 in 1.2 mi Variable 1.2 mph - N/A   Overcast